| time (UTC) | temp F | wind direction | speed knots | gust knots | rain 1hr in | rain 24hr in | rain mn in | humidity % | barometer mb |
| 20260508161116 | 59 | 58 | 7.0 | 11.3 | 0.00 | 0.00 | 0.00 | 54 | 1018.3 |
| 20260508155617 | 60 | 98 | 5.2 | 9.6 | 0.00 | 0.00 | 0.00 | 55 | 1018.2 |
| 20260508154116 | 60 | 110 | 5.2 | 9.6 | 0.00 | 0.00 | 0.00 | 51 | 1018.3 |
| 20260508152616 | 59 | 77 | 5.2 | 11.3 | 0.00 | 0.00 | 0.00 | 52 | 1018.4 |
| 20260508151115 | 60 | 73 | 5.2 | 11.3 | 0.00 | 0.00 | 0.00 | 50 | 1018.4 |
| 20260508145616 | 59 | 109 | 5.2 | 11.3 | 0.00 | 0.00 | 0.00 | 51 | 1018.5 |
| 20260508144115 | 59 | 76 | 5.2 | 9.6 | 0.00 | 0.00 | 0.00 | 55 | 1018.5 |
| 20260508142615 | 59 | 95 | 5.2 | 11.3 | 0.00 | 0.00 | 0.00 | 55 | 1018.6 |
| 20260508141115 | 62 | 86 | 3.5 | 9.6 | 0.00 | 0.00 | 0.00 | 52 | 1018.6 |
| 20260508135615 | 59 | 107 | 5.2 | 9.6 | 0.00 | 0.00 | 0.00 | 52 | 1018.6 |
| 20260508134113 | 59 | 87 | 5.2 | 9.6 | 0.00 | 0.00 | 0.00 | 55 | 1018.6 |
| 20260508132614 | 59 | 94 | 5.2 | 11.3 | 0.00 | 0.00 | 0.00 | 55 | 1018.6 |
| 20260508131113 | 59 | 82 | 7.0 | 11.3 | 0.00 | 0.00 | 0.00 | 54 | 1018.8 |
| 20260508125613 | 60 | 120 | 5.2 | 11.3 | 0.00 | 0.00 | 0.00 | 55 | 1018.8 |
| 20260508124112 | 59 | 113 | 5.2 | 11.3 | 0.00 | 0.00 | 0.00 | 56 | 1018.8 |
| 20260508122612 | 59 | 89 | 5.2 | 11.3 | 0.00 | 0.00 | 0.00 | 55 | 1018.8 |
| 20260508121111 | 59 | 100 | 5.2 | 11.3 | 0.00 | 0.00 | 0.00 | 57 | 1019.0 |
| 20260508115612 | 59 | 107 | 5.2 | 11.3 | 0.00 | 0.00 | 0.00 | 55 | 1018.9 |
| 20260508114111 | 60 | 58 | 5.2 | 9.6 | 0.00 | 0.00 | 0.00 | 57 | 1018.9 |
| 20260508112612 | 57 | 98 | 5.2 | 11.3 | 0.00 | 0.00 | 0.00 | 58 | 1019.2 |
| 20260508111110 | 57 | 123 | 5.2 | 9.6 | 0.00 | 0.00 | 0.00 | 60 | 1019.2 |
| 20260508105611 | 57 | 89 | 5.2 | 9.6 | 0.00 | 0.00 | 0.00 | 56 | 1019.2 |
| 20260508104110 | 59 | 73 | 5.2 | 11.3 | 0.00 | 0.00 | 0.00 | 59 | 1019.1 |
| 20260508102610 | 59 | 86 | 5.2 | 11.3 | 0.00 | 0.00 | 0.00 | 58 | 1019.1 |
| 20260508101109 | 57 | 78 | 5.2 | 13.0 | 0.00 | 0.00 | 0.00 | 60 | 1019.2 |
| 20260508095609 | 57 | 71 | 5.2 | 9.6 | 0.00 | 0.00 | 0.00 | 59 | 1019.2 |
| 20260508094109 | 57 | 71 | 7.0 | 11.3 | 0.00 | 0.00 | 0.00 | 62 | 1019.3 |
| 20260508092608 | 55 | 75 | 5.2 | 11.3 | 0.00 | 0.00 | 0.00 | 61 | 1019.3 |
| 20260508091107 | 55 | 80 | 7.0 | 11.3 | 0.00 | 0.00 | 0.00 | 64 | 1019.4 |
| 20260508085607 | 55 | 82 | 7.0 | 11.3 | 0.00 | 0.00 | 0.00 | 65 | 1019.4 |
| 20260508084106 | 53 | 112 | 7.0 | 13.0 | 0.00 | 0.00 | 0.00 | 68 | 1019.4 |
| 20260508082607 | 53 | 74 | 5.2 | 11.3 | 0.00 | 0.00 | 0.00 | 72 | 1019.3 |
| 20260508081106 | 53 | 72 | 5.2 | 11.3 | 0.00 | 0.00 | 0.00 | 72 | 1019.4 |
| 20260508075606 | 51 | 100 | 5.2 | 11.3 | 0.00 | 0.00 | 0.00 | 77 | 1019.5 |
| 20260508074105 | 51 | 86 | 5.2 | 11.3 | 0.00 | 0.00 | 0.00 | 75 | 1019.4 |
| 20260508072605 | 50 | 111 | 5.2 | 9.6 | 0.00 | 0.00 | 0.00 | 80 | 1019.4 |
| 20260508071105 | 50 | 107 | 3.5 | 7.0 | 0.00 | 0.00 | 0.00 | 82 | 1019.3 |
| 20260508065604 | 48 | 86 | 1.7 | 5.2 | 0.00 | 0.00 | 0.00 | 87 | 1019.0 |
| 20260508064104 | 46 | 99 | 1.7 | 5.2 | 0.00 | 0.00 | 0.00 | 90 | 1019.0 |
| 20260508062605 | 44 | 70 | 1.7 | 3.5 | 0.00 | 0.00 | 0.00 | 98 | 1018.9 |
| 20260508061103 | 42 | 71 | 1.7 | 5.2 | 0.00 | 0.00 | 0.00 | 99 | 1018.9 |
| 20260508055604 | 41 | 68 | 3.5 | 3.5 | 0.00 | 0.00 | 0.00 | 99 | 1018.8 |
| 20260508054102 | 39 | 64 | 3.5 | 5.2 | 0.00 | 0.00 | 0.00 | 99 | 1018.8 |
| 20260508052603 | 39 | 66 | 3.5 | 5.2 | 0.00 | 0.00 | 0.00 | 99 | 1018.8 |
| 20260508051102 | 37 | 62 | 0.0 | 1.7 | 0.00 | 0.00 | 0.00 | 99 | 1018.8 |
| 20260508045602 | 33 | 67 | 0.0 | 1.7 | 0.00 | 0.00 | 0.00 | 99 | 1018.8 |
| 20260508044101 | 35 | 66 | 1.7 | 3.5 | 0.00 | 0.00 | 0.00 | 99 | 1018.7 |
| 20260508042602 | 35 | 61 | 1.7 | 3.5 | 0.00 | 0.00 | 0.00 | 98 | 1018.4 |
| 20260508041101 | 37 | 69 | 1.7 | 3.5 | 0.00 | 0.00 | 0.00 | 99 | 1018.6 |
| 20260508035601 | 35 | 68 | 1.7 | 3.5 | 0.00 | 0.00 | 0.00 | 99 | 1018.4 |
| 20260508034101 | 35 | 55 | 1.7 | 3.5 | 0.00 | 0.00 | 0.00 | 99 | 1018.4 |
| 20260508032601 | 35 | 42 | 1.7 | 1.7 | 0.00 | 0.00 | 0.00 | 99 | 1018.4 |
| 20260508031100 | 35 | 42 | 1.7 | 1.7 | 0.00 | 0.00 | 0.00 | 99 | 1018.4 |
| 20260508025559 | 35 | 57 | 1.7 | 3.5 | 0.00 | 0.00 | 0.00 | 99 | 1018.4 |
| 20260508024059 | 35 | 42 | 1.7 | 3.5 | 0.00 | 0.00 | 0.00 | 99 | 1018.4 |
| 20260508022559 | 35 | 41 | 1.7 | 3.5 | 0.00 | 0.00 | 0.00 | 99 | 1018.6 |
| 20260508021059 | 35 | 47 | 1.7 | 3.5 | 0.00 | 0.00 | 0.00 | 98 | 1018.4 |
| 20260508015559 | 33 | 63 | 1.7 | 3.5 | 0.00 | 0.00 | 0.00 | 98 | 1018.5 |
| 20260508014058 | 35 | 67 | 1.7 | 3.5 | 0.00 | 0.00 | 0.00 | 99 | 1018.5 |
| 20260508012557 | 35 | 73 | 3.5 | 5.2 | 0.00 | 0.00 | 0.00 | 99 | 1018.5 |
| 20260508011057 | 35 | 69 | 3.5 | 3.5 | 0.00 | 0.00 | 0.00 | 98 | 1018.6 |
| 20260508005557 | 35 | 44 | 1.7 | 3.5 | 0.00 | 0.00 | 0.00 | 99 | 1018.6 |
| 20260508004057 | 37 | 51 | 1.7 | 1.7 | 0.00 | 0.00 | 0.00 | 99 | 1018.7 |
| 20260508002557 | 37 | 52 | 0.0 | 1.7 | 0.00 | 0.00 | 0.00 | 99 | 1018.5 |
| 20260508001057 | 35 | 52 | 0.0 | 1.7 | 0.00 | 0.00 | 0.00 | 98 | 1018.6 |
| 20260507235557 | 37 | 42 | 1.7 | 1.7 | 0.00 | 0.00 | 0.00 | 99 | 1018.6 |
| 20260507234057 | 35 | 36 | 0.0 | 1.7 | 0.00 | 0.00 | 0.00 | 99 | 1018.6 |
| 20260507232557 | 35 | 29 | 1.7 | 1.7 | 0.00 | 0.00 | 0.00 | 98 | 1018.6 |
| 20260507231057 | 37 | 35 | 1.7 | 1.7 | 0.00 | 0.00 | 0.00 | 99 | 1018.6 |
| 20260507225557 | 37 | 50 | 1.7 | 1.7 | 0.00 | 0.00 | 0.00 | 98 | 1018.6 |
| 20260507224057 | 39 | 35 | 1.7 | 1.7 | 0.00 | 0.00 | 0.00 | 99 | 1018.6 |
| 20260507222557 | 41 | 108 | 0.0 | 1.7 | 0.00 | 0.00 | 0.00 | 99 | 1018.4 |
| 20260507221056 | 39 | 105 | 0.0 | 1.7 | 0.00 | 0.00 | 0.00 | 95 | 1018.4 |
| 20260507215555 | 42 | 94 | 1.7 | 3.5 | 0.00 | 0.00 | 0.00 | 96 | 1018.3 |
| 20260507214055 | 42 | 88 | 1.7 | 3.5 | 0.00 | 0.00 | 0.00 | 92 | 1018.3 |
| 20260507212555 | 42 | 88 | 1.7 | 3.5 | 0.00 | 0.00 | 0.00 | 91 | 1018.2 |
| 20260507211056 | 44 | 87 | 1.7 | 3.5 | 0.00 | 0.00 | 0.00 | 88 | 1018.2 |
| 20260507205555 | 46 | 84 | 3.5 | 5.2 | 0.00 | 0.00 | 0.00 | 87 | 1018.0 |
| 20260507204055 | 46 | 81 | 3.5 | 5.2 | 0.00 | 0.00 | 0.00 | 86 | 1018.0 |
| 20260507202555 | 46 | 83 | 3.5 | 3.5 | 0.00 | 0.00 | 0.00 | 85 | 1017.8 |
| 20260507201054 | 46 | 85 | 1.7 | 3.5 | 0.00 | 0.00 | 0.00 | 84 | 1017.8 |
| 20260507195554 | 48 | 83 | 3.5 | 5.2 | 0.00 | 0.00 | 0.00 | 81 | 1017.7 |
| 20260507194053 | 48 | 83 | 3.5 | 7.0 | 0.00 | 0.00 | 0.00 | 79 | 1017.6 |
| 20260507192553 | 48 | 80 | 3.5 | 7.0 | 0.00 | 0.00 | 0.00 | 78 | 1017.4 |
| 20260507191053 | 50 | 82 | 3.5 | 5.2 | 0.00 | 0.00 | 0.00 | 77 | 1017.4 |
| 20260507185553 | 50 | 82 | 3.5 | 7.0 | 0.00 | 0.00 | 0.00 | 74 | 1017.2 |
| 20260507184053 | 51 | 83 | 3.5 | 9.6 | 0.00 | 0.00 | 0.00 | 72 | 1017.1 |
| 20260507182553 | 53 | 69 | 5.2 | 9.6 | 0.00 | 0.00 | 0.00 | 68 | 1017.1 |
| 20260507181052 | 53 | 61 | 5.2 | 9.6 | 0.00 | 0.00 | 0.00 | 68 | 1017.0 |
| 20260507175552 | 53 | 63 | 5.2 | 11.3 | 0.00 | 0.00 | 0.00 | 64 | 1016.9 |
| 20260507174052 | 55 | 79 | 5.2 | 11.3 | 0.00 | 0.00 | 0.00 | 65 | 1016.8 |
| 20260507172551 | 55 | 70 | 7.0 | 11.3 | 0.00 | 0.00 | 0.00 | 66 | 1016.7 |
| 20260507171050 | 55 | 92 | 7.0 | 11.3 | 0.00 | 0.00 | 0.00 | 66 | 1016.6 |
| 20260507165551 | 57 | 93 | 7.0 | 11.3 | 0.00 | 0.00 | 0.00 | 63 | 1016.5 |
| 20260507164050 | 55 | 85 | 7.0 | 11.3 | 0.00 | 0.00 | 0.00 | 64 | 1016.4 |
| 20260507162551 | 57 | 79 | 5.2 | 13.0 | 0.00 | 0.00 | 0.00 | 60 | 1016.2 |